Airport Information

KPDT - Eastern Oregon Regional Airport

KPDT 191753Z 26016G22KT 10SM CLR 19/02 A3006 RMK AO2 PK WND 27027/1708 SLP169 T01940022 10194 20117 58005


  • General Information

  • Coordinates: N 45°41'42"/ W 118°50'29"
  • Location: N/A
  • Surveyed Elevation: 1497 MSL

Operations

Flow Name Active Runways Conditions

Green background denotes normal operations.


Common Frequencies

Callsign Frequency Position Name

More at the Document Center


Charts